Date String (YYYY-MM-DD hh:mm:ss) UTC,Instrument flags,Ambient pressure (hPa),Sample flow (lpm),Bypass flow (lpm),Sample temperature (°C),Ambient temperature (°C),ASC tube jacket temperature (°C),LED temperature (°C),Box temperature (°C),Sample RH (%),Span deviation,Mass concentration (μg/m³),Mass concentration (μg/m³),Mass concentration (μg/m³)
DateTimeUTC,F1_M11,P_M11,Q1_M11,Q2_M11,T1_M11,T2_M11,T3_M11,T4_M11,T5_M11,U1_M11,ZSPAN_M11,X0_M11,X2_M11,X1_M11
2021-10-02 12:00:00,,0832.3,4.99,0.00,29.4,28.3,00.0,38.6,31.1,19.6,0001.5,0012.19,0007.15,0006.21
2021-10-02 12:01:00,,0832.3,5.00,0.00,29.4,28.4,00.0,38.6,31.1,19.6,0001.3,0012.04,0007.17,0006.25
2021-10-02 12:02:00,,0832.4,5.01,0.00,29.4,28.3,00.0,38.6,31.0,19.6,0001.3,0012.23,0007.24,0006.29
2021-10-02 12:03:00,,0832.3,5.00,0.00,29.4,28.3,00.0,38.5,31.0,19.6,0001.3,0012.34,0007.25,0006.32
2021-10-02 12:04:00,,0832.3,5.00,0.00,29.4,28.3,00.0,38.6,31.1,19.6,0001.4,0013.12,0007.29,0006.35
2021-10-02 12:05:00,,0832.3,5.02,0.00,29.4,28.3,00.0,38.5,31.1,19.6,0001.3,0013.35,0007.29,0006.38
2021-10-02 12:06:00,,0832.3,4.99,0.00,29.4,28.3,00.0,38.5,31.1,19.6,0001.2,0013.20,0007.27,0006.38
2021-10-02 12:07:00,,0832.3,5.01,0.00,29.4,28.3,00.0,38.5,31.1,19.6,0001.1,0013.23,0007.26,0006.40
2021-10-02 12:08:00,,0832.4,5.00,0.00,29.4,28.3,00.0,38.5,31.1,19.6,0001.2,0013.06,0007.26,0006.41
2021-10-02 12:09:00,,0832.4,5.01,0.00,29.4,28.3,00.0,38.5,31.1,19.6,0001.1,0012.96,0007.27,0006.44
2021-10-02 12:10:00,,0832.4,5.01,0.00,29.4,28.3,00.0,38.5,31.1,19.6,0001.2,0012.91,0007.30,0006.47
2021-10-02 12:11:00,,0832.4,4.98,0.00,29.3,28.3,00.0,38.5,31.1,19.5,0001.2,0013.22,0007.26,0006.48
2021-10-02 12:12:00,,0832.5,5.01,0.00,29.4,28.3,00.0,38.5,31.1,19.6,0001.3,0013.59,0007.26,0006.50
2021-10-02 12:13:00,,0832.4,4.98,0.00,29.3,28.3,00.0,38.5,31.1,19.5,0001.4,0013.51,0007.25,0006.51
2021-10-02 12:14:00,,0832.4,5.00,0.00,29.3,28.3,00.0,38.5,31.0,19.5,0001.4,0013.36,0007.27,0006.52
2021-10-02 12:15:00,,0832.5,5.00,0.00,29.3,28.3,00.0,38.5,31.0,19.5,0001.4,0013.00,0007.29,0006.54
2021-10-02 12:16:00,,0832.4,5.00,0.00,29.3,28.3,00.0,38.5,31.0,19.5,0001.5,0013.07,0007.30,0006.56
2021-10-02 12:17:00,,0832.4,4.98,0.00,29.3,28.3,00.0,38.5,31.0,19.5,0001.6,0013.40,0007.34,0006.58
2021-10-02 12:18:00,,0832.4,5.02,0.00,29.3,28.3,00.0,38.5,31.0,19.5,0001.7,0013.46,0007.36,0006.61
2021-10-02 12:19:00,,0832.4,5.01,0.00,29.3,28.3,00.0,38.5,31.0,19.5,0001.7,0013.61,0007.39,0006.63
2021-10-02 12:20:00,,0832.5,5.00,0.00,29.3,28.2,00.0,38.5,31.0,19.5,0001.9,0014.01,0007.45,0006.64
2021-10-02 12:21:00,,0832.4,4.99,0.00,29.3,28.2,00.0,38.5,31.0,19.6,0002.0,0014.41,0007.47,0006.64
2021-10-02 12:22:00,,0832.4,5.00,0.00,29.3,28.3,00.0,38.5,31.0,19.6,0002.1,0014.22,0007.50,0006.67
2021-10-02 12:23:00,,0832.5,5.00,0.00,29.3,28.3,00.0,38.5,31.0,19.5,0002.3,0013.88,0007.52,0006.70
2021-10-02 12:24:00,,0832.5,5.01,0.00,29.3,28.3,00.0,38.5,31.0,19.5,0002.4,0013.80,0007.52,0006.75
2021-10-02 12:25:00,,0832.4,5.00,0.00,29.3,28.3,00.0,38.5,31.0,19.5,0002.2,0014.27,0007.62,0006.83
2021-10-02 12:26:00,,0832.4,5.00,0.00,29.3,28.3,00.0,38.5,31.0,19.5,0002.2,0014.80,0007.68,0006.88
2021-10-02 12:27:00,,0832.5,4.99,0.00,29.3,28.3,00.0,38.5,31.0,19.5,0002.1,0015.37,0007.71,0006.93
2021-10-02 12:28:00,,0832.5,5.01,0.00,29.3,28.3,00.0,38.5,31.0,19.5,0002.1,0015.18,0007.71,0006.96
2021-10-02 12:29:00,,0832.5,5.01,0.00,29.3,28.3,00.0,38.5,31.0,19.5,0001.9,0015.42,0007.77,0006.98
2021-10-02 12:30:00,,0832.5,5.00,0.00,29.3,28.3,00.0,38.5,31.0,19.6,0001.8,0015.95,0007.83,0007.02
2021-10-02 12:31:00,,0832.5,5.01,0.00,29.3,28.3,00.0,38.4,31.0,19.6,0001.6,0015.82,0007.86,0007.04
2021-10-02 12:32:00,,0832.5,5.00,0.00,29.3,28.2,00.0,38.5,31.0,19.6,0001.4,0015.54,0007.86,0007.07
2021-10-02 12:33:00,,0832.5,5.00,0.00,29.3,28.2,00.0,38.4,31.0,19.6,0001.5,0015.42,0007.94,0007.08
2021-10-02 12:34:00,,0832.6,5.00,0.00,29.3,28.2,00.0,38.4,31.0,19.7,0001.4,0015.68,0007.94,0007.08
2021-10-02 12:35:00,,0832.6,5.01,0.00,29.3,28.2,00.0,38.4,30.9,19.7,0001.3,0015.84,0007.93,0007.05
2021-10-02 12:36:00,,0832.6,5.00,0.00,29.3,28.2,00.0,38.4,31.0,19.7,0001.4,0015.75,0007.88,0007.01
2021-10-02 12:37:00,,0832.6,4.99,0.00,29.3,28.2,00.0,38.4,31.0,19.7,0001.4,0015.44,0007.87,0006.99
2021-10-02 12:38:00,,0832.5,5.01,0.00,29.2,28.2,00.0,38.4,30.9,19.7,0001.3,0014.66,0007.84,0006.97
2021-10-02 12:39:00,,0832.6,5.00,0.00,29.2,28.2,00.0,38.4,30.9,19.7,0001.2,0014.56,0007.86,0006.97
2021-10-02 12:40:00,,0832.6,5.00,0.00,29.2,28.2,00.0,38.4,30.9,19.7,0001.1,0014.25,0007.81,0006.96
2021-10-02 12:41:00,,0832.6,4.99,0.00,29.2,28.2,00.0,38.4,30.9,19.7,0000.9,0013.90,0007.78,0006.95
2021-10-02 12:42:00,,0832.6,4.99,0.00,29.2,28.2,00.0,38.4,30.9,19.7,0000.8,0014.51,0007.78,0006.95
2021-10-02 12:43:00,,0832.6,5.00,0.00,29.2,28.2,00.0,38.4,30.9,19.7,0000.7,0015.06,0007.79,0006.95
2021-10-02 12:44:00,,0832.6,5.00,0.00,29.2,28.2,00.0,38.4,30.9,19.7,0000.6,0015.48,0007.81,0006.98
2021-10-02 12:45:00,,0832.6,5.02,0.00,29.2,28.2,00.0,38.4,31.0,19.8,0000.5,0015.50,0007.85,0007.01
2021-10-02 12:46:00,,0832.6,5.00,0.00,29.2,28.2,00.0,38.4,31.0,19.7,0000.4,0016.10,0007.92,0007.06
2021-10-02 12:47:00,,0832.6,5.00,0.00,29.2,28.2,00.0,38.4,31.0,19.7,0000.2,0016.25,0007.95,0007.09
2021-10-02 12:48:00,,0832.6,5.00,0.00,29.2,28.2,00.0,38.4,31.0,19.8,0000.2,0015.92,0007.92,0007.09
2021-10-02 12:49:00,,0832.6,5.00,0.00,29.2,28.2,00.0,38.4,30.9,19.8,0000.3,0016.29,0007.96,0007.11
2021-10-02 12:50:00,,0832.6,5.00,0.00,29.2,28.2,00.0,38.4,30.9,19.8,0000.4,0016.61,0007.97,0007.12
2021-10-02 12:51:00,,0832.6,4.99,0.00,29.2,28.2,00.0,38.4,30.9,19.8,0000.8,0016.70,0007.99,0007.14
2021-10-02 12:52:00,,0832.6,5.00,0.00,29.2,28.2,00.0,38.4,31.0,19.8,0000.7,0016.65,0007.99,0007.17
2021-10-02 12:53:00,,0832.6,5.00,0.00,29.2,28.2,00.0,38.4,31.0,19.8,0000.7,0016.05,0008.02,0007.19
2021-10-02 12:54:00,,0832.6,5.01,0.00,29.2,28.2,00.0,38.4,30.9,19.8,0000.9,0015.54,0008.04,0007.22
2021-10-02 12:55:00,,0832.6,5.00,0.00,29.2,28.2,00.0,38.4,30.9,19.7,0000.8,0015.65,0008.02,0007.23
2021-10-02 12:56:00,,0832.6,5.00,0.00,29.2,28.2,00.0,38.4,30.9,19.8,0000.7,0016.31,0008.05,0007.23
2021-10-02 12:57:00,,0832.6,5.00,0.00,29.2,28.2,00.0,38.4,30.9,19.7,0000.8,0016.41,0008.03,0007.22
2021-10-02 12:58:00,,0832.6,4.99,0.00,29.2,28.2,00.0,38.4,30.9,19.7,0001.0,0016.45,0008.05,0007.22
2021-10-02 12:59:00,,0832.6,4.99,0.00,29.2,28.2,00.0,38.4,30.9,19.7,0000.9,0016.38,0008.11,0007.25
